Flag for Canada Weather past 2 weeks in Chatham-Kent, Ontario, Canada

Now
36 °F

Chilly.


Feels Like: 33 °F
Forecast: N/A
Wind: 5 mph from Northwest

Location: Erieau

Current Time: Mar 31, 2015 at 4:52:47 PM

Latest Report: Mar 31, 2015 at 4:00 PM


Visibility: N/A

Pressure: 29.89 "Hg

Humidity: 79%

Dew point: 30 °F

Location of Chatham-KentLocation

Historic Weather in Chatham-Kent — Graph

°F

Chatham-Kent temperature yesterday

Maximum temperature yesterday: 49 °F (at 5:00 PM)
Minimum temperature yesterday: 33 °F (at 11:00 PM)
Average temperature yesterday: 39 °F

Past Weeks' High & Low Weather Summary

 TemperatureHumidityPressure
High49 °F (Mar 30, 5:00 PM)100% (Mar 21, 2:00 PM)30.40 "Hg (Mar 21, 2:00 PM)
Low16 °F (Mar 28, 7:00 AM)33% (Mar 18, 5:00 PM)29.68 "Hg (Mar 17, 1:00 AM)
Average31 °F75%30.11 "Hg
* Reported Mar 16 3:00 PM — Mar 31 3:00 PM, Chatham-Kent, Weather by CustomWeather, © 2015

Note: Actual official high and low records may vary slightly from our data, if they occured in-between our weather recording intervals... More about our weather records

Advertising

Chatham-Kent weather history for previous 24 hours

 ConditionsComfort  
Time TempWeatherWind HumidityBarometerVisibility
3:00 PM
Tue, Mar 31
35 °FChilly.7 mph87%29.88 "HgN/A
2:00 PM34 °FChilly.5 mph90%29.85 "HgN/A
1:00 PM33 °FChilly.10 mph93%29.82 "HgN/A
12:00 PM31 °FChilly.14 mph100%29.79 "HgN/A
11:00 AM31 °FChilly.15 mph100%29.75 "HgN/A
10:00 AM32 °FChilly.15 mph100%29.74 "HgN/A
9:00 AM32 °FChilly.22 mph100%29.74 "HgN/A
8:00 AM32 °FChilly.17 mph100%29.74 "HgN/A
7:00 AM32 °FChilly.16 mph99%29.77 "HgN/A
6:00 AM32 °FChilly.13 mph100%29.80 "HgN/A
5:00 AM32 °FChilly.12 mph96%29.83 "HgN/A
4:00 AM32 °FChilly.8 mph92%29.88 "HgN/A
3:00 AM34 °FChilly.7 mph78%29.93 "HgN/A
2:00 AM33 °FChilly.7 mph80%29.94 "HgN/A
1:00 AM31 °FChilly.5 mph84%29.96 "HgN/A
12:00 AM33 °FChilly.7 mph76%29.97 "HgN/A
11:00 PM
Mon, Mar 30
33 °FChilly.2 mph74%29.98 "HgN/A
10:00 PM35 °FChilly.2 mph75%29.98 "HgN/A
9:00 PM38 °FChilly.7 mph65%29.95 "HgN/A
8:00 PM41 °FQuite cool.7 mph61%29.92 "HgN/A
7:00 PM43 °FQuite cool.7 mph65%29.90 "HgN/A
6:00 PM49 °FCool.10 mph46%29.87 "HgN/A
5:00 PM49 °FCool.9 mph46%29.86 "HgN/A
4:00 PM47 °FCool.9 mph49%29.85 "HgN/A
Weather by CustomWeather, © 2015

See weather overviewHow to use our weather pages